Temp
-11 -11 -10 -10 -11 -11 -11 -12 -11 -11 -11 -11 -10 -10 -10 -10 -10 -10 -10 -9 -10 -10 -10 -10 -9 -10 -10 -10 -10 -10 -10 -10 -10 -11 -11 -11 -11 -11 -11 -10 -11 -11 -11 -11 -11
-11 -10 -9 -10 -10 -10 -10 -12 -12 -11 -12 -11 -11 -10 -10 -10 -10 -10 -10 -10 -10 -11 -11 -11 -11 -11 -10 -10 -10 -10 -10 -10 -11 -11 -11 -11 -10 -10 -10 -11 -11 -12 -12 -11 -11
-10 -10 -10 -9 -9 -9 -11 -12 -12 -12 -12 -12 -12 -11 -11 -10 -10 -10 -10 -10 -11 -11 -11 -11 -11 -11 -11 -10 -10 -11 -10 -11 -10 -11 -11 -10 -10 -10 -12 -11 -12 -12 -12 -11 -12
-11 -11 -10 -10 -10 -10 -11 -12 -12 -12 -13 -12 -12 -12 -11 -11 -11 -10 -10 -11 -11 -11 -11 -12 -12 -11 -11 -10 -11 -11 -11 -11 -11 -10 -10 -10 -11 -10 -12 -12 -12 -12 -12 -12 -12
-11 -11 -10 -10 -9 -10 -10 -11 -12 -12 -12 -12 -12 -12 -12 -11 -10 -12 -11 -11 -11 -11 -12 -12 -12 -12 -11 -11 -11 -11 -11 -12 -11 -10 -10 -10 -10 -11 -11 -11 -12 -11 -12 -12 -12
-11 -11 -11 -10 -10 -9 -9 -10 -11 -12 -12 -12 -12 -12 -12 -10 -11 -12 -12 -12 -11 -11 -11 -11 -11 -12 -12 -11 -11 -11 -12 -12 -11 -10 -11 -12 -11 -11 -12 -12 -11 -12 -12 -12 -11
-11 -10 -10 -10 -10 -10 -10 -10 -10 -10 -10 -11 -12 -11 -10 -9 -12 -12 -11 -11 -12 -11 -12 -11 -11 -11 -11 -11 -11 -12 -12 -11 -11 -11 -10 -12 -11 -10 -11 -12 -12 -12 -12 -12 -12
-10 -10 -10 -10 -10 -10 -10 -11 -10 -10 -11 -11 -11 -11 -9 -11 -11 -10 -10 -10 -10 -10 -10 -11 -11 -11 -11 -11 -11 -11 -11 -11 -10 -11 -11 -12 -10 -11 -11 -12 -12 -12 -12 -12 -11
-10 -10 -10 -10 -10 -10 -10 -11 -11 -11 -11 -11 -10 -10 -8 -10 -10 -11 -11 -10 -10 -10 -10 -10 -10 -10 -11 -10 -10 -10 -10 -11 -10 -11 -11 -12 -11 -12 -11 -12 -12 -12 -12 -12 -11
-10 -10 -10 -10 -10 -10 -10 -11 -11 -10 -10 -10 -10 -9 -9 -10 -10 -10 -11 -10 -10 -10 -10 -10 -10 -10 -10 -9 -7 -9 -10 -10 -10 -11 -11 -12 -12 -12 -12 -12 -12 -12 -12 -13 -11
-10 -10 -10 -10 -10 -10 -11 -11 -11 -11 -10 -10 -10 -9 -10 -9 -10 -10 -11 -11 -10 -10 -9 -10 -10 -9 -9 -9 -10 -11 -11 -12 -12 -11 -11 -11 -11 -12 -12 -12 -11 -12 -13 -13 -12
-10 -10 -10 -10 -10 -10 -11 -10 -11 -10 -9 -9 -10 -9 -9 -10 -9 -9 -10 -9 -9 -8 -10 -10 -8 -9 -9 -10 -11 -11 -11 -11 -12 -12 -12 -12 -12 -12 -12 -11 -11 -12 -12 -12 -11
-10 -10 -10 -10 -10 -11 -11 -12 -12 -10 -9 -9 -9 -9 -9 -10 -9 -9 -10 -9 -9 -8 -9 -9 -9 -10 -10 -10 -10 -11 -10 -11 -12 -12 -12 -12 -12 -11 -12 -13 -13 -13 -12 -12 -11
-10 -10 -10 -10 -10 -11 -11 -12 -12 -11 -10 -8 -9 -8 -9 -9 -8 -9 -9 -9 -9 -8 -9 -9 -10 -10 -10 -10 -10 -10 -11 -12 -12 -12 -12 -12 -11 -11 -12 -12 -12 -13 -12 -11 -11
-13 -12 -12 -11 -11 -11 -11 -12 -12 -12 -12 -9 -9 -9 -10 -9 -9 -9 -10 -9 -9 -8 -9 -8 -9 -10 -10 -10 -10 -10 -12 -12 -12 -12 -13 -12 -11 -10 -12 -12 -12 -13 -13 -12 -11
-19 -18 -16 -15 -14 -13 -12 -12 -13 -14 -11 -9 -11 -9 -9 -9 -9 -10 -10 -10 -10 -10 -9 -9 -10 -10 -10 -11 -11 -12 -12 -12 -13 -13 -12 -11 -11 -10 -12 -12 -12 -13 -12 -13 -11
-21 -20 -20 -20 -19 -17 -15 -14 -14 -13 -10 -10 -12 -10 -9 -9 -10 -10 -10 -10 -9 -9 -8 -9 -9 -9 -10 -12 -13 -12 -13 -12 -13 -12 -9 -10 -11 -10 -12 -12 -12 -12 -13 -12 -12
-23 -22 -22 -22 -22 -21 -20 -19 -15 -10 -10 -11 -13 -14 -11 -11 -10 -11 -10 -10 -10 -10 -10 -9 -9 -9 -9 -10 -12 -12 -12 -12 -12 -11 -11 -11 -11 -12 -11 -11 -12 -12 -12 -12 -12
-24 -23 -23 -23 -24 -24 -22 -21 -14 -12 -12 -13 -14 -15 -15 -14 -12 -11 -11 -10 -10 -10 -9 -9 -9 -10 -10 -11 -12 -12 -11 -11 -12 -12 -12 -12 -11 -12 -12 -11 -11 -11 -12 -12 -12
-24 -23 -23 -23 -23 -24 -24 -22 -17 -14 -15 -16 -15 -15 -15 -15 -15 -14 -11 -10 -10 -10 -10 -10 -10 -10 -10 -12 -12 -12 -12 -11 -11 -11 -12 -11 -11 -11 -11 -11 -11 -11 -12 -12 -12
-24 -23 -23 -22 -23 -23 -22 -21 -21 -19 -19 -18 -17 -15 -14 -14 -15 -15 -12 -11 -10 -10 -10 -10 -11 -11 -12 -12 -11 -10 -11 -12 -11 -12 -12 -12 -11 -11 -11 -12 -11 -11 -11 -12 -12
-24 -24 -24 -23 -23 -23 -23 -24 -24 -22 -20 -18 -18 -16 -14 -15 -14 -14 -14 -12 -11 -11 -10 -10 -11 -11 -12 -12 -11 -10 -10 -12 -10 -11 -12 -12 -12 -12 -12 -11 -11 -12 -11 -12 -12
-25 -25 -25 -25 -25 -25 -25 -24 -23 -22 -22 -19 -18 -17 -15 -15 -14 -14 -14 -13 -12 -12 -10 -10 -11 -11 -11 -12 -12 -11 -11 -12 -13 -12 -12 -12 -11 -11 -11 -11 -11 -12 -10 -12 -12
-25 -25 -25 -25 -25 -25 -25 -25 -24 -23 -22 -21 -19 -18 -17 -15 -14 -13 -14 -14 -14 -14 -11 -12 -11 -11 -10 -11 -12 -11 -11 -11 -11 -11 -11 -11 -11 -12 -12 -12 -11 -12 -11 -12 -12
-26 -26 -25 -26 -26 -26 -26 -25 -25 -25 -24 -22 -21 -18 -17 -16 -15 -14 -15 -15 -14 -14 -14 -14 -11 -11 -11 -11 -12 -12 -10 -10 -10 -10 -11 -10 -11 -12 -11 -11 -12 -12 -12 -11 -12
-26 -26 -26 -27 -26 -26 -26 -25 -25 -25 -24 -23 -21 -19 -18 -17 -16 -15 -15 -14 -14 -14 -14 -15 -12 -11 -11 -11 -12 -12 -11 -11 -11 -12 -11 -10 -11 -11 -12 -12 -12 -13 -12 -12 -11
-27 -27 -27 -27 -27 -26 -26 -26 -26 -25 -25 -24 -22 -21 -19 -17 -16 -16 -15 -14 -13 -13 -14 -15 -12 -12 -11 -12 -11 -12 -12 -11 -10 -11 -12 -10 -10 -11 -12 -12 -12 -12 -12 -12 -12
Height
5811 5812 5812 5814 5817 5819 5822 5826 5830 5832 5836 5839 5842 5843 5845 5846 5848 5851 5856 5856 5855 5855 5856 5857 5858 5859 5859 5862 5862 5861 5859 5860 5861 5862 5863 5861 5857 5853 5850 5846 5844 5837 5834 5834 5832
5803 5803 5804 5805 5807 5809 5812 5815 5818 5823 5826 5830 5834 5836 5838 5839 5841 5845 5847 5847 5850 5849 5851 5850 5852 5851 5853 5856 5856 5855 5853 5855 5855 5855 5854 5852 5851 5850 5848 5843 5838 5832 5826 5825 5828
5795 5794 5794 5796 5797 5798 5800 5805 5808 5812 5816 5820 5824 5827 5830 5832 5834 5837 5839 5841 5843 5844 5843 5843 5844 5844 5846 5848 5851 5849 5847 5847 5849 5848 5847 5847 5846 5845 5841 5839 5837 5831 5826 5818 5821
5787 5787 5787 5787 5787 5787 5790 5795 5798 5802 5806 5811 5814 5818 5820 5821 5823 5827 5834 5835 5835 5836 5836 5837 5836 5836 5839 5842 5845 5840 5842 5841 5842 5843 5842 5842 5840 5837 5835 5833 5830 5824 5826 5820 5818
5780 5779 5779 5780 5780 5780 5781 5784 5788 5791 5796 5801 5804 5807 5809 5807 5815 5818 5821 5824 5827 5829 5829 5828 5826 5829 5829 5835 5836 5835 5838 5838 5837 5837 5837 5836 5833 5831 5830 5828 5824 5821 5821 5817 5813
5773 5769 5772 5773 5774 5774 5775 5776 5778 5782 5786 5791 5793 5794 5795 5792 5814 5812 5808 5810 5814 5819 5818 5816 5816 5820 5820 5824 5827 5831 5831 5831 5831 5832 5831 5829 5827 5825 5826 5822 5818 5819 5816 5813 5809
5764 5763 5763 5765 5766 5767 5767 5768 5770 5774 5777 5779 5780 5781 5781 5793 5798 5795 5796 5802 5805 5807 5806 5807 5809 5810 5815 5817 5822 5823 5822 5824 5824 5826 5825 5824 5822 5823 5823 5816 5815 5812 5810 5809 5805
5755 5755 5754 5753 5755 5757 5759 5760 5760 5761 5764 5768 5769 5770 5773 5787 5786 5791 5793 5796 5798 5799 5802 5803 5805 5805 5807 5811 5812 5814 5816 5815 5821 5822 5821 5821 5816 5820 5818 5812 5810 5808 5807 5803 5801
5745 5745 5744 5744 5744 5744 5747 5749 5751 5752 5756 5758 5761 5761 5763 5780 5781 5787 5785 5789 5791 5792 5795 5797 5798 5800 5802 5801 5804 5807 5808 5812 5816 5818 5818 5818 5814 5812 5814 5811 5807 5804 5802 5799 5794
5730 5730 5731 5732 5732 5733 5734 5735 5736 5740 5743 5746 5750 5753 5761 5771 5772 5775 5776 5780 5782 5785 5786 5789 5791 5791 5794 5794 5800 5805 5806 5810 5812 5815 5817 5813 5810 5809 5808 5806 5803 5802 5798 5794 5790
5713 5713 5714 5716 5718 5719 5721 5724 5725 5725 5726 5734 5740 5743 5749 5755 5763 5766 5767 5769 5772 5773 5775 5782 5782 5782 5791 5796 5799 5802 5803 5807 5812 5815 5809 5809 5807 5808 5806 5801 5800 5798 5795 5791 5785
5694 5694 5696 5698 5699 5703 5705 5707 5707 5711 5716 5723 5728 5732 5741 5742 5749 5755 5757 5759 5761 5764 5770 5773 5771 5783 5788 5789 5792 5796 5798 5801 5807 5810 5810 5808 5806 5803 5801 5796 5794 5791 5789 5787 5781
5672 5673 5674 5676 5680 5685 5689 5691 5692 5695 5699 5712 5720 5724 5734 5733 5738 5744 5745 5749 5752 5756 5761 5766 5777 5778 5780 5782 5786 5789 5792 5795 5801 5804 5803 5801 5798 5797 5795 5794 5792 5790 5785 5781 5777
5644 5646 5649 5651 5658 5661 5667 5671 5675 5678 5683 5699 5711 5716 5721 5727 5730 5738 5739 5743 5745 5749 5754 5760 5768 5769 5772 5775 5781 5782 5788 5792 5796 5797 5796 5798 5791 5793 5792 5789 5788 5784 5780 5778 5775
5613 5615 5620 5624 5628 5634 5644 5651 5657 5665 5670 5692 5699 5707 5713 5716 5728 5730 5735 5736 5741 5745 5748 5756 5758 5761 5765 5770 5775 5779 5786 5791 5793 5790 5790 5788 5788 5788 5788 5787 5787 5779 5776 5772 5771
5585 5586 5591 5595 5600 5604 5616 5627 5635 5643 5658 5677 5682 5687 5698 5708 5715 5718 5724 5728 5734 5737 5742 5747 5751 5754 5762 5767 5770 5777 5782 5786 5786 5786 5782 5785 5785 5785 5785 5785 5782 5777 5773 5769 5768
5568 5567 5568 5571 5577 5579 5587 5598 5607 5618 5664 5666 5672 5672 5686 5692 5702 5707 5710 5717 5723 5727 5732 5739 5743 5749 5754 5760 5768 5770 5777 5778 5779 5778 5779 5783 5780 5779 5782 5781 5777 5775 5771 5765 5765
5553 5551 5551 5552 5555 5559 5565 5569 5582 5626 5644 5660 5668 5664 5663 5679 5685 5696 5698 5709 5715 5722 5729 5733 5736 5742 5748 5752 5760 5765 5767 5770 5773 5774 5777 5780 5775 5780 5776 5777 5774 5771 5766 5764 5762
5541 5539 5540 5540 5541 5543 5548 5548 5574 5609 5626 5639 5649 5649 5656 5658 5673 5680 5689 5698 5708 5715 5720 5726 5731 5739 5743 5749 5755 5760 5758 5768 5769 5773 5775 5776 5776 5775 5771 5772 5769 5765 5763 5762 5760
5530 5528 5526 5525 5528 5531 5532 5539 5562 5587 5602 5603 5621 5629 5634 5652 5659 5662 5676 5687 5696 5705 5715 5722 5727 5732 5739 5744 5748 5751 5759 5760 5761 5765 5768 5772 5775 5778 5769 5768 5764 5763 5763 5761 5758
5520 5518 5517 5517 5518 5520 5524 5537 5548 5557 5572 5574 5584 5601 5613 5626 5639 5656 5661 5679 5688 5696 5705 5715 5720 5727 5734 5730 5737 5743 5748 5752 5758 5761 5764 5768 5771 5770 5765 5765 5762 5762 5760 5759 5756
5512 5512 5511 5511 5514 5514 5521 5527 5529 5535 5544 5554 5564 5580 5600 5609 5615 5628 5649 5663 5678 5687 5691 5704 5711 5715 5722 5729 5734 5739 5744 5748 5751 5757 5759 5766 5767 5761 5761 5763 5762 5759 5757 5757 5755
5507 5510 5508 5509 5509 5511 5514 5517 5519 5523 5535 5543 5548 5564 5579 5586 5608 5621 5635 5654 5668 5672 5681 5695 5698 5707 5715 5724 5726 5729 5735 5742 5747 5750 5753 5759 5763 5760 5759 5759 5760 5756 5753 5755 5753
5503 5505 5507 5506 5506 5507 5509 5510 5512 5515 5521 5526 5534 5549 5561 5580 5593 5612 5624 5639 5658 5665 5674 5681 5691 5694 5702 5713 5719 5721 5728 5735 5739 5741 5748 5752 5760 5761 5752 5756 5756 5754 5750 5753 5752
5501 5502 5502 5502 5501 5500 5501 5504 5505 5508 5513 5519 5528 5535 5551 5569 5582 5600 5603 5614 5628 5650 5667 5669 5678 5688 5699 5709 5715 5716 5722 5728 5730 5736 5740 5748 5751 5755 5752 5753 5753 5751 5748 5750 5750
5499 5499 5498 5497 5494 5494 5493 5497 5500 5503 5506 5510 5518 5530 5541 5556 5567 5578 5591 5603 5622 5637 5652 5656 5669 5681 5688 5698 5706 5708 5713 5719 5725 5730 5733 5740 5744 5749 5752 5748 5751 5748 5747 5749 5748
5496 5495 5494 5494 5491 5492 5493 5493 5495 5498 5504 5506 5514 5521 5526 5549 5554 5562 5572 5592 5603 5617 5628 5641 5656 5666 5674 5688 5697 5698 5705 5710 5718 5723 5728 5732 5740 5743 5747 5749 5751 5747 5746 5747 5747
Wind_Speed
35 38 40 45 54 61 61 64 61 59 47 48 50 47 46 45 49 46 48 45 39 40 44 46 45 39 36 27 25 29 28 28 26 13 21 17 17 25 32 35 32 37 41 37 32
40 40 44 45 50 53 55 62 64 62 57 51 50 50 50 48 45 46 40 37 33 36 37 39 42 38 38 37 32 31 35 30 23 17 26 28 33 32 29 27 25 27 43 40 36
33 35 37 39 44 50 55 59 59 58 57 61 55 50 49 51 49 44 40 38 37 40 44 46 43 46 41 39 31 34 36 31 25 25 30 29 29 27 26 31 33 37 39 47 31
30 25 24 31 38 44 52 61 64 63 60 60 60 58 56 57 58 55 50 45 47 51 52 54 54 56 44 36 31 37 33 30 32 25 29 25 24 27 32 29 29 39 34 40 43
30 24 26 23 24 32 40 47 53 62 57 57 65 66 68 70 63 61 60 60 59 56 57 60 62 60 64 55 46 40 31 30 34 30 24 23 25 30 29 30 32 39 36 31 25
32 26 30 32 31 28 27 28 41 50 57 60 63 65 64 61 55 59 64 64 61 56 54 58 56 53 53 52 36 36 35 32 38 25 21 24 28 33 23 32 36 31 29 25 27
40 33 38 37 37 37 36 34 32 33 34 40 52 52 49 37 55 55 55 43 31 25 24 22 24 33 32 34 36 37 36 35 32 23 24 24 31 27 24 32 32 31 26 24 29
40 42 47 47 44 43 42 43 42 39 41 44 43 42 35 24 26 24 26 25 22 28 27 27 29 32 35 34 35 35 35 36 23 21 23 29 34 33 22 27 32 36 28 32 31
46 46 46 46 46 47 47 46 47 47 47 48 45 45 38 32 33 33 39 33 33 33 32 29 32 31 28 31 29 30 33 29 21 19 19 30 37 33 27 22 30 32 32 36 34
50 51 51 51 50 49 49 49 52 51 52 51 50 47 42 36 39 39 39 35 34 34 35 32 31 31 30 31 20 22 24 19 17 11 21 33 30 33 33 25 30 31 38 37 30
57 56 55 55 56 55 54 52 51 53 54 53 52 52 49 46 42 38 40 40 38 39 36 32 34 33 26 18 19 22 17 19 15 20 17 19 20 34 33 31 28 28 33 31 33
64 63 62 60 59 59 60 58 58 57 53 47 45 49 43 49 41 37 40 42 41 41 35 35 37 26 24 24 27 25 24 23 23 22 29 29 29 36 29 20 19 22 22 24 29
72 72 69 67 65 63 62 64 63 63 61 52 44 41 32 38 33 32 37 35 35 38 41 37 26 27 28 29 30 29 28 26 22 24 26 26 31 25 18 23 23 26 26 21 23
79 79 77 76 72 70 68 67 69 69 67 59 52 45 41 37 35 29 34 35 34 31 37 33 30 33 31 34 30 31 24 16 22 26 28 21 27 23 22 17 20 26 28 19 19
80 81 80 81 80 77 74 73 72 70 70 62 58 54 51 48 38 35 33 35 33 30 33 25 30 34 33 31 28 27 18 21 26 28 27 29 30 16 11 11 20 26 34 27 18
59 64 70 74 81 82 80 77 76 74 70 63 61 62 59 53 48 44 38 40 34 34 33 30 29 30 28 26 26 22 23 25 31 26 31 23 21 13 4 16 21 27 35 26 19
51 54 56 55 58 67 77 79 74 80 64 64 61 68 61 58 52 49 50 46 43 43 38 34 34 31 29 30 28 24 29 33 29 28 28 13 16 11 10 24 33 30 17 26 20
37 36 39 44 46 52 55 61 77 75 69 61 52 44 62 66 58 49 54 48 47 42 38 37 37 34 28 29 31 32 35 31 30 23 9 15 24 16 25 22 24 19 16 20 18
35 37 35 35 35 38 47 58 73 73 69 66 40 38 44 51 62 55 52 51 48 47 44 40 35 27 31 31 31 35 34 25 27 20 22 17 14 16 26 24 30 23 16 16 16
36 34 29 29 32 36 43 50 57 64 59 60 66 47 42 31 36 53 56 53 50 48 45 41 34 32 23 31 33 35 27 31 27 25 25 19 16 19 27 27 25 29 23 17 15
32 22 19 23 27 34 35 31 32 47 59 61 64 67 53 44 35 42 54 52 50 48 48 44 38 32 30 40 36 36 37 36 26 23 18 9 9 22 31 22 28 34 19 13 14
23 10 14 15 19 30 23 23 34 47 54 64 64 78 62 54 50 54 42 55 51 50 49 47 48 42 37 34 35 28 33 35 30 24 23 20 18 22 23 27 29 31 16 16 13
11 4 16 11 14 17 23 26 32 42 46 71 64 79 74 63 54 53 46 40 54 49 51 44 52 50 39 32 43 39 35 33 32 29 22 24 19 24 28 27 24 24 16 9 12
7 7 12 16 17 20 21 23 26 34 46 72 65 70 81 71 66 56 51 46 34 39 53 43 47 51 49 41 42 42 38 35 36 38 31 25 14 22 29 22 25 18 14 8 11
5 8 14 22 26 30 29 28 26 21 24 57 64 67 72 82 77 62 59 57 53 45 41 42 52 48 43 39 38 41 40 36 39 35 32 21 25 23 21 21 16 24 16 9 11
7 9 10 10 15 23 19 20 31 23 22 52 74 65 65 81 78 74 66 59 56 53 40 45 54 51 46 41 38 41 40 38 36 35 35 28 25 22 23 19 14 27 21 8 11
10 13 10 11 11 10 10 14 22 28 23 26 62 68 68 78 77 79 72 63 63 65 52 46 51 55 53 44 45 40 39 42 36 35 35 31 24 24 18 20 22 25 20 6 10
Wind_Direction
256 257 251 245 245 248 250 245 246 247 236 241 244 243 243 246 256 250 258 262 258 262 265 269 275 277 277 278 277 283 294 306 308 284 280 284 277 272 282 286 296 294 297 288 299
256 254 251 252 248 243 244 246 246 240 237 240 242 243 242 244 243 248 247 249 251 261 266 272 273 276 276 277 275 281 290 303 300 270 259 252 263 277 289 290 304 305 296 297 306
253 253 247 251 251 247 246 242 238 235 237 243 236 242 240 244 241 243 240 242 252 257 264 270 276 278 277 271 276 285 291 300 294 281 270 281 291 295 286 279 270 277 282 298 311
240 241 244 252 251 250 243 239 235 237 238 239 241 240 237 235 242 247 247 251 257 256 261 267 271 274 272 270 269 279 292 297 300 293 283 290 297 298 293 290 286 281 292 295 302
238 234 245 251 254 250 244 242 242 242 235 236 244 245 246 245 256 258 255 257 256 258 262 269 267 267 263 269 272 272 285 284 284 290 284 296 298 295 296 295 282 296 301 310 315
262 258 253 248 245 244 244 246 243 241 240 244 246 250 254 254 258 256 259 258 266 266 264 262 262 259 260 261 259 270 274 274 281 281 295 288 290 292 303 295 297 308 299 316 322
260 261 267 257 252 248 243 235 235 239 240 245 251 252 250 256 253 256 257 262 245 253 266 270 262 257 260 260 262 263 263 269 274 290 288 293 281 304 301 284 293 308 313 313 312
262 260 260 264 262 256 251 246 244 241 240 241 240 244 250 233 243 250 251 245 243 258 257 254 251 248 250 255 252 253 260 266 274 282 298 291 290 296 297 276 288 305 305 314 312
263 260 259 258 259 258 253 250 249 249 244 243 243 247 256 230 241 248 248 244 248 245 250 248 250 249 248 245 247 248 255 263 280 284 308 262 284 296 307 274 292 297 311 310 305
266 263 258 258 256 255 255 253 250 246 247 248 247 248 256 245 239 241 248 249 247 246 244 246 249 252 245 247 270 267 267 276 296 289 265 270 276 302 301 296 285 298 302 304 309
268 264 260 257 255 255 252 251 251 251 249 249 249 251 253 248 244 242 247 248 244 243 240 242 246 248 257 271 260 255 254 248 268 283 267 270 290 286 286 291 294 285 282 289 299
268 264 262 259 255 252 252 252 250 251 251 249 247 249 249 254 248 241 242 243 244 247 245 240 244 250 255 245 242 243 249 240 239 248 254 260 270 272 289 302 302 300 294 290 295
265 264 261 258 255 252 250 250 250 251 250 246 244 244 238 242 240 222 235 240 244 243 239 245 251 245 244 243 245 249 252 243 244 252 257 261 272 292 324 302 289 286 300 298 306
264 262 258 256 254 250 247 244 245 246 247 244 241 238 240 236 239 228 235 236 238 239 238 241 239 240 235 241 245 251 250 254 253 250 255 256 270 272 280 302 305 290 308 308 302
264 260 256 255 252 248 245 244 244 244 245 243 241 242 238 239 246 238 239 237 238 238 236 239 236 235 235 237 241 245 230 239 255 267 269 267 270 284 304 298 288 272 290 303 312
274 270 263 257 252 248 243 240 239 238 240 241 243 240 238 237 237 238 232 233 230 232 232 230 231 230 232 233 241 229 231 234 243 250 259 272 287 285 333 281 257 274 290 300 311
278 273 268 262 256 252 247 242 238 234 236 238 242 246 240 239 236 235 235 231 228 225 232 222 225 224 218 219 224 229 217 231 245 249 262 310 304 311 279 253 263 286 272 293 310
283 281 269 263 257 252 248 244 238 233 233 236 232 246 247 241 237 232 237 229 229 230 233 233 226 225 223 222 217 223 227 230 235 255 288 289 257 254 288 300 312 303 289 294 308
285 283 279 267 258 252 244 243 238 229 226 226 210 205 257 255 242 237 233 234 233 233 229 233 231 227 229 227 211 222 233 244 230 227 247 276 308 242 296 309 305 326 332 300 305
290 288 277 263 253 252 243 244 239 229 220 210 207 203 203 234 233 237 230 230 227 229 228 232 236 223 227 217 224 219 237 233 231 233 230 228 245 268 263 278 287 316 319 313 306
302 295 267 265 251 248 256 254 238 220 201 197 196 201 194 194 206 227 230 226 225 226 225 223 225 226 212 219 224 223 214 235 237 235 235 251 272 251 273 278 289 303 306 324 313
307 304 269 280 255 253 252 243 230 221 205 193 196 196 191 191 195 199 217 221 222 222 224 221 223 218 220 227 236 240 227 225 240 231 220 220 238 238 254 265 280 297 291 294 305
294 202 270 273 266 260 249 244 234 228 210 194 197 199 193 189 191 196 196 208 215 224 218 215 216 220 213 216 230 230 221 216 230 236 233 220 216 269 272 279 297 303 296 303 310
276 233 269 269 265 254 249 249 240 233 217 206 196 193 197 191 191 192 190 187 212 209 219 219 214 220 223 214 223 235 224 224 227 236 236 230 193 247 251 271 293 307 287 297 310
315 249 254 262 260 262 254 241 233 229 231 212 201 194 192 197 197 191 190 192 190 192 224 233 211 218 222 212 224 236 240 232 236 243 239 244 215 231 268 283 288 301 308 289 301
314 282 297 283 292 255 249 252 232 230 218 210 208 199 191 191 195 192 188 187 187 179 210 223 217 217 219 219 207 222 244 234 230 232 244 240 235 219 223 271 284 280 298 262 307
304 285 294 279 318 238 259 250 231 228 228 215 212 206 198 191 193 196 189 185 191 183 201 212 216 207 216 213 202 221 223 238 229 226 234 249 247 223 216 231 246 253 274 259 309